CAPE
0 0 0 0 0 0 0 0 0 0 0 0 0 0 0 0 0 0 0 0 0 0 0 0 0 0 0 0 0 0 0 0 0 0 0 0 0 0 0 0 0 0 0 0
0 0 0 0 0 0 0 0 0 0 0 0 0 0 0 0 0 0 0 0 0 0 0 0 0 0 0 0 0 0 0 0 0 0 0 0 0 0 0 0 0 0 0 0
0 0 0 0 0 0 0 0 0 0 0 0 0 0 0 0 0 0 0 0 0 0 0 0 0 0 0 0 0 0 0 0 0 0 0 0 0 0 0 0 0 0 0 0
0 0 0 0 0 0 0 0 0 0 0 0 0 0 0 0 0 0 0 0 0 0 0 0 0 0 0 0 0 0 0 0 0 0 0 0 0 0 0 0 0 0 0 0
0 0 0 0 0 0 0 0 0 0 0 0 0 0 0 0 0 0 0 0 0 0 0 0 0 0 0 0 0 0 0 0 0 0 0 0 0 0 0 0 0 0 0 0
0 0 0 0 0 0 0 0 0 0 0 0 0 0 0 0 0 0 0 0 0 0 0 0 0 0 0 0 0 0 0 0 0 0 0 0 0 0 0 0 0 0 0 0
0 0 0 0 0 0 0 0 0 0 0 0 0 0 0 0 0 0 0 0 0 0 0 0 0 0 0 0 0 0 0 0 0 0 0 0 0 0 0 0 0 0 0 0
0 0 0 0 0 0 0 0 0 0 0 0 0 0 0 0 0 0 0 0 0 0 0 0 0 0 0 0 0 0 0 0 0 0 0 0 0 0 0 0 0 0 0 0
0 0 0 0 0 0 0 0 0 0 0 0 0 0 0 0 0 0 0 0 0 0 0 0 0 0 0 0 0 0 0 0 0 0 0 0 0 0 0 0 0 0 0 0
0 0 0 0 0 0 0 0 0 0 0 0 0 0 0 0 0 0 0 0 0 0 0 0 0 0 0 0 0 0 0 0 0 0 0 0 0 0 0 0 0 0 0 0
0 0 0 0 0 0 0 0 0 0 0 0 0 0 0 0 0 0 0 0 0 0 0 0 0 0 0 0 0 0 0 0 0 0 0 0 0 0 0 0 0 0 0 0
2 7 1 0 0 0 0 0 0 0 0 0 0 0 0 0 0 0 0 0 0 0 0 0 0 0 0 0 0 0 0 0 0 0 0 0 0 0 0 0 0 0 0 0
1 0 0 0 0 0 0 0 0 1 0 0 0 0 0 0 0 0 0 0 0 0 0 0 0 0 0 0 0 0 0 0 0 0 0 0 0 0 0 0 0 0 0 0
3 2 2 0 8 0 0 0 0 1 0 0 0 0 0 0 0 0 0 0 0 0 0 0 0 0 0 0 0 0 0 0 0 0 0 0 0 0 0 0 0 0 0 0
0 0 0 0 0 0 0 9 8 0 0 3 0 0 0 0 0 0 0 0 0 0 0 0 0 0 0 0 0 0 0 0 0 0 0 0 0 0 0 0 0 0 0 0
0 0 0 0 0 0 0 0 0 0 0 0 0 0 0 0 0 0 0 0 0 0 0 0 0 0 0 0 0 0 0 0 0 0 0 0 0 0 0 0 0 0 0 0
0 0 0 1 0 0 0 0 0 0 0 0 0 4 0 1 0 0 0 0 0 0 0 0 0 0 0 0 0 0 0 0 0 0 0 0 0 0 0 0 0 0 0 0
0 0 0 7 5 1 0 0 0 27 26 35 25 1 2 0 0 0 0 0 0 0 0 0 0 0 0 0 0 0 0 0 0 0 0 0 0 0 0 0 0 0 0 0
0 0 32 1 0 0 0 0 1 2 13 43 0 0 35 0 0 0 0 0 0 0 0 0 0 0 0 0 0 0 0 0 0 0 0 0 0 0 0 0 0 0 0 0
0 0 0 0 1 3 0 0 0 0 0 0 0 14 12 0 0 0 0 0 0 0 0 0 0 0 0 0 0 0 0 0 0 0 0 0 0 0 0 0 0 0 0 0
0 0 0 0 1 0 0 1 5 0 0 0 0 0 2 0 0 0 0 0 1 0 0 0 0 0 0 0 0 0 0 0 0 0 0 0 0 0 0 0 0 0 0 0
0 1 0 0 1 0 12 0 0 1 4 2 0 0 0 0 0 0 0 3 0 0 0 0 0 0 0 0 0 0 0 0 0 0 0 0 0 0 0 0 0 0 0 0
0 0 0 0 0 0 0 0 0 0 1 0 0 0 0 0 0 0 0 10 0 0 0 0 0 0 0 0 0 0 0 0 0 0 0 0 0 0 0 0 0 0 0 0
0 0 0 0 0 0 0 0 0 0 0 0 0 0 0 0 0 0 0 11 1 0 0 0 0 0 0 0 0 0 0 0 0 0 0 0 0 0 0 0 0 0 0 0
1 3 0 0 0 0 0 0 0 0 0 0 0 0 0 0 0 0 0 0 8 1 2 0 0 0 0 0 0 0 0 0 0 0 0 0 0 0 0 0 0 0 0 0
1 0 0 0 0 0 0 0 0 0 0 0 0 0 0 0 0 0 0 2 5 7 9 0 0 0 0 0 0 0 0 0 0 0 0 0 0 0 0 0 0 0 0 0
CIN
0 0 0 0 0 0 0 0 0 0 0 0 0 0 0 0 0 0 0 0 0 0 0 0 0 0 0 0 0 0 0 0 0 0 0 0 0 0 0 0 0 0 0 0
0 0 0 0 0 0 0 0 0 0 0 0 0 0 0 0 0 0 0 0 0 0 0 0 0 0 0 0 0 0 0 0 0 0 0 0 0 0 0 0 0 0 0 0
0 0 0 0 0 0 0 0 0 0 0 0 0 0 0 0 0 0 0 0 0 0 0 0 0 0 0 0 0 0 0 0 0 0 0 0 0 0 0 0 0 0 0 0
0 0 0 0 0 0 0 0 0 0 0 0 0 0 0 0 0 0 0 0 0 0 0 0 0 0 0 0 0 0 0 0 0 0 0 0 0 0 0 0 0 0 0 0
0 0 0 0 0 0 0 0 0 0 0 0 0 0 0 0 0 0 0 0 0 0 0 0 0 0 0 0 0 0 0 0 0 0 0 0 0 0 0 0 0 0 0 0
0 0 0 0 0 0 0 0 0 0 0 0 0 0 0 0 0 0 0 0 0 0 0 0 0 0 0 0 0 0 0 0 0 0 0 0 0 0 0 0 0 0 0 0
0 0 0 0 0 0 0 0 0 0 0 0 0 0 0 0 0 0 0 0 0 0 0 0 0 0 0 0 0 0 0 0 0 0 0 0 0 0 0 0 0 0 0 0
0 0 0 0 0 0 0 0 0 0 0 0 0 0 0 0 0 0 0 0 0 0 0 0 0 0 0 0 0 0 0 0 0 0 0 0 0 0 0 0 0 0 0 0
0 0 0 0 0 0 0 0 0 0 0 0 0 0 0 0 0 0 0 0 0 0 0 0 0 0 0 0 0 0 0 0 0 0 0 0 0 0 0 0 0 0 0 0
0 0 0 0 0 0 0 0 0 0 0 0 0 0 0 0 0 0 0 0 0 0 0 0 0 0 0 0 0 0 0 0 0 0 0 0 0 0 0 0 0 0 0 0
0 0 0 0 0 0 0 0 0 0 0 0 0 0 0 0 0 0 0 0 0 0 0 0 0 0 0 0 0 0 0 0 0 0 0 0 0 0 0 0 0 0 0 0
-24 -3 0 0 0 0 0 0 0 0 0 0 0 0 0 0 0 0 0 0 0 0 0 0 0 0 0 0 0 0 0 0 0 0 0 0 0 0 0 0 0 0 0 0
-1 -1 0 0 0 0 0 0 0 0 0 0 0 0 0 0 0 0 0 0 0 0 0 0 0 0 0 0 0 0 0 0 0 0 0 0 0 0 0 0 0 0 0 0
-5 -2 -3 0 0 0 0 0 0 0 0 0 0 0 0 0 0 0 0 0 0 0 0 0 0 0 0 0 0 0 0 0 0 0 0 0 0 0 0 0 0 0 0 0
0 0 0 0 0 0 0 0 -1 0 0 -1 0 0 0 0 0 0 0 0 0 0 0 0 0 0 0 0 0 0 0 0 0 0 0 0 0 0 0 0 0 0 0 0
0 0 0 0 0 0 0 0 0 0 0 0 0 0 0 0 -4 0 0 0 0 0 0 0 0 0 0 0 0 0 0 0 0 0 0 0 0 0 0 0 0 0 0 0
0 0 0 0 0 0 -1 0 0 0 0 0 0 -7 0 0 0 0 0 0 0 0 0 0 0 0 0 0 0 0 0 0 0 0 0 0 0 0 0 0 0 0 0 0
0 0 0 -5 -15 -3 0 0 0 -28 -3 -30 -8 -10 0 0 0 0 0 0 0 0 0 0 0 0 0 0 0 0 0 0 0 0 0 0 0 0 0 0 0 0 0 0
0 0 -8 -1 0 0 0 0 -5 -7 -42 -48 0 0 0 0 0 0 0 0 0 0 0 0 0 0 0 0 0 0 0 0 0 0 0 0 0 0 0 0 0 0 0 0
0 0 -1 0 -3 -6 0 0 0 0 0 0 0 -18 -23 0 0 0 0 0 0 0 0 0 0 0 0 0 0 0 0 0 0 0 0 0 0 0 0 0 0 0 0 0
0 0 -13 -2 -2 0 0 -29 -21 0 0 0 -5 0 -37 0 0 0 0 0 -5 0 0 0 0 0 0 0 0 0 0 0 0 0 0 0 0 0 0 0 0 0 0 0
0 -1 0 0 -4 0 -18 -2 -1 -13 -7 -15 0 0 0 0 0 0 0 -15 -4 0 0 0 0 0 0 0 0 0 0 0 0 0 0 0 0 0 0 0 0 0 0 0
0 0 0 0 0 0 0 0 0 0 -7 0 0 0 0 0 0 0 0 -18 0 0 0 0 0 0 0 0 0 0 0 0 0 0 0 0 0 0 0 0 0 0 0 0
0 -7 0 0 0 0 0 0 0 0 0 0 0 0 0 0 0 0 0 -22 -34 0 -5 0 0 0 0 0 0 0 0 0 0 0 0 0 0 0 0 0 0 0 0 0
-1 -2 0 0 0 0 0 0 0 0 0 0 0 0 0 0 0 0 0 0 -27 -7 -20 0 0 0 0 0 0 0 0 0 0 0 0 0 0 0 0 0 0 0 0 0
0 0 -12 0 0 -4 0 0 0 0 0 0 0 0 0 0 0 0 0 -26 -33 -4 -5 0 0 0 0 0 0 0 0 0 0 0 0 0 0 0 0 0 0 0 0 0
Wind_Speed
21 22 17 20 21 28 30 32 36 33 30 31 35 39 37 34 29 26 25 23 22 21 21 22 21 21 20 19 18 18 17 16 14 14 13 14 13 12 12 11 12 13 15 15
23 23 25 28 27 30 33 37 39 41 35 35 44 52 40 36 33 29 28 26 24 24 24 25 24 23 22 21 21 20 19 18 17 15 15 17 14 14 12 12 12 12 14 15
21 22 22 24 28 31 32 35 40 43 40 39 44 64 49 41 35 31 29 27 29 27 28 27 26 25 25 24 23 22 21 19 17 16 15 17 15 16 14 13 13 12 14 15
22 26 26 29 29 26 36 31 36 40 41 49 31 67 45 38 36 31 29 29 30 30 28 26 24 26 27 26 24 23 21 20 18 16 16 16 17 17 14 13 12 12 13 15
23 27 28 28 27 27 34 32 34 34 39 43 42 45 53 37 40 35 34 32 30 29 26 24 23 24 24 25 24 23 21 19 18 17 16 15 16 14 13 12 12 12 14 14
22 26 26 28 28 26 30 31 33 35 36 49 42 38 73 49 44 37 34 33 30 29 28 26 24 21 20 20 22 22 21 20 18 17 16 15 14 13 13 12 12 12 14 14
32 29 28 25 32 30 28 30 42 46 43 51 36 39 44 33 34 37 37 36 36 34 30 26 20 17 16 17 19 21 21 20 18 17 16 14 13 11 12 11 12 12 13 14
43 53 28 23 25 31 31 31 39 50 51 56 40 48 45 38 37 35 34 38 43 42 29 18 12 13 14 15 17 18 20 19 18 16 15 14 12 11 11 10 11 11 11 12
42 41 29 35 32 28 36 40 37 49 55 57 57 57 55 47 45 44 41 38 39 42 32 22 15 14 15 15 15 17 18 17 17 16 15 14 12 11 10 10 10 10 11 13
37 61 37 36 33 31 34 35 45 40 56 62 57 54 53 44 42 47 49 44 41 39 38 28 21 16 15 15 14 15 16 16 16 15 14 14 12 11 10 10 10 11 11 12
40 45 58 48 46 50 46 45 42 45 49 61 66 62 46 46 44 45 40 36 38 38 39 38 32 26 22 18 15 15 16 15 15 15 14 14 13 12 11 11 11 11 11 12
38 46 66 65 55 48 47 51 47 54 60 55 62 72 48 49 47 43 47 52 51 49 44 32 29 26 24 20 18 17 16 16 16 15 15 14 13 12 12 12 10 10 12 12
41 47 64 69 53 36 38 42 47 50 46 57 65 65 47 48 51 51 52 52 48 46 42 38 30 26 23 22 21 20 18 16 15 15 15 14 13 12 12 11 10 11 12 14
42 47 51 62 61 57 68 63 57 51 58 60 61 64 69 66 63 55 55 54 56 54 50 42 36 33 27 26 23 22 20 17 16 15 16 15 14 13 12 11 10 11 12 14
39 54 50 55 57 59 63 65 61 67 59 59 68 64 63 61 58 55 55 54 54 52 52 51 49 41 34 29 25 23 21 18 17 16 16 16 14 13 12 11 11 11 12 14
39 54 51 60 55 55 62 61 62 60 67 65 60 63 50 55 50 54 53 55 55 52 50 51 50 42 35 29 26 24 23 20 18 18 17 16 14 13 12 11 11 11 13 15
44 45 46 56 51 50 54 52 55 54 56 54 56 48 42 46 52 53 55 52 51 52 50 50 48 46 39 29 26 26 25 22 20 19 17 16 15 13 12 11 11 12 14 15
35 37 36 44 42 44 36 38 39 41 42 42 40 38 41 47 51 51 49 45 52 52 51 52 49 46 38 36 28 26 24 22 21 19 17 16 15 14 12 11 11 13 14 14
20 26 34 40 43 42 40 32 39 43 43 24 36 44 40 45 46 47 43 46 49 49 51 53 52 50 46 34 29 28 24 23 21 19 18 16 14 13 12 11 11 13 13 14
20 28 32 39 41 42 34 46 37 37 41 34 46 48 49 44 50 49 48 49 52 49 52 54 56 53 48 34 25 25 25 24 23 20 18 16 13 12 11 10 11 12 13 14
32 34 35 34 37 37 32 33 32 38 43 47 49 48 47 45 45 52 51 50 50 51 53 55 51 48 43 28 22 24 24 24 20 18 16 14 12 11 10 10 11 12 13 16
35 36 38 33 31 37 27 42 43 46 50 51 50 49 47 47 48 49 49 48 50 51 51 51 48 41 31 26 22 22 22 20 17 15 13 12 11 10 9 10 11 12 14 16
25 19 32 28 33 32 45 50 53 48 46 50 50 49 49 52 50 50 49 46 47 46 44 42 34 31 27 24 21 20 18 16 14 13 12 10 9 9 9 10 11 14 16 17
20 17 25 32 21 28 26 50 48 43 46 48 48 51 50 49 48 49 49 44 44 43 37 32 25 22 18 16 16 14 13 12 12 11 9 9 9 9 10 11 12 15 17 18
17 29 24 20 22 23 19 35 41 48 45 48 45 45 47 48 46 46 46 41 39 37 32 28 23 19 15 12 12 10 9 10 9 8 8 8 8 9 10 12 14 15 16 18
24 21 25 23 19 19 28 49 47 49 49 48 47 47 46 45 44 43 44 39 35 34 32 26 25 19 14 11 9 7 7 7 6 6 7 8 8 10 11 13 16 17 17 19
Wind_Direction
297 292 279 281 280 289 292 291 290 294 298 291 287 286 288 292 288 286 283 280 274 263 251 269 259 253 250 247 243 241 247 251 255 266 275 289 296 308 319 328 335 339 341 342
300 290 294 296 291 287 288 289 288 290 294 290 289 284 287 288 287 282 280 278 271 271 272 270 259 252 243 240 239 240 243 245 252 260 274 291 295 304 313 321 327 330 335 336
292 299 311 306 296 289 287 286 290 289 294 292 293 279 286 288 285 284 279 272 280 271 270 266 259 249 245 237 235 236 239 242 247 255 270 290 300 309 308 313 318 323 330 331
302 301 293 294 292 291 287 292 292 292 293 288 296 283 290 292 290 288 286 285 283 280 275 271 263 253 244 237 241 239 238 239 245 249 260 271 283 293 300 308 316 321 327 330
307 310 307 301 294 291 292 297 295 293 290 292 288 289 289 297 292 296 296 292 288 285 280 272 264 252 245 241 234 234 237 240 248 246 254 264 279 290 303 307 311 318 324 328
290 302 302 302 304 300 301 299 297 295 291 284 283 285 280 291 294 298 301 299 297 295 290 279 271 267 253 243 237 233 231 237 245 244 249 257 265 278 291 299 305 313 321 325
311 303 300 291 292 295 295 296 293 290 284 282 290 284 277 297 301 300 301 302 301 300 296 293 270 255 246 231 231 231 229 237 242 241 246 251 258 267 279 289 300 310 316 322
307 301 308 310 290 296 288 281 282 289 287 288 288 281 282 292 295 299 300 300 297 292 298 297 266 233 240 239 235 225 226 235 236 235 240 247 250 264 277 285 298 305 312 319
311 306 315 310 306 300 296 285 285 283 284 286 284 284 287 288 290 293 294 296 296 290 293 288 286 261 261 249 238 222 223 233 227 231 238 240 245 254 267 281 294 302 310 317
315 301 310 313 310 301 293 298 290 287 284 281 282 283 283 291 293 293 294 291 290 292 290 291 280 267 264 254 243 231 233 228 223 229 235 239 241 249 266 281 289 300 309 315
315 304 299 304 298 297 297 293 290 288 280 280 282 281 288 288 292 291 293 294 294 293 293 289 285 278 272 264 247 238 238 232 235 237 242 245 245 250 266 277 287 299 312 316
317 306 297 296 297 293 287 288 289 283 283 281 279 277 287 291 292 290 287 287 288 290 291 294 291 278 269 260 251 238 240 235 239 239 244 244 247 252 265 275 282 298 309 317
318 306 300 298 304 306 296 294 294 295 290 282 280 279 291 293 292 292 289 286 283 284 285 290 291 286 275 261 252 247 247 244 244 242 243 247 245 251 260 269 279 296 310 317
314 302 297 295 294 296 291 292 291 288 285 283 281 287 283 284 286 288 290 292 285 281 280 284 285 282 277 266 255 249 251 251 249 246 244 244 244 252 256 267 279 296 309 317
316 303 301 297 297 295 292 289 285 284 284 281 283 285 285 286 284 285 287 289 288 286 282 279 280 280 277 270 258 251 252 252 253 243 244 243 247 252 257 266 279 295 309 317
313 304 304 298 299 296 292 290 288 285 283 284 283 283 289 286 286 286 288 285 286 287 285 281 279 281 273 265 253 249 251 252 248 246 248 249 249 250 252 263 277 296 310 319
310 309 309 302 305 303 295 293 291 289 285 285 283 289 292 290 289 288 287 287 285 284 284 282 282 276 274 265 250 249 251 253 246 249 252 248 247 248 253 264 281 297 310 320
309 311 314 311 314 303 311 312 306 300 298 300 292 295 295 294 288 291 290 290 287 285 283 282 280 279 277 270 260 258 251 246 245 249 250 248 246 250 255 265 281 301 313 318
315 318 319 315 311 309 309 323 316 309 299 312 307 306 309 299 296 294 298 295 292 286 285 281 278 274 275 270 263 258 247 243 244 246 248 245 242 247 253 266 285 304 312 320
337 324 320 317 313 309 312 306 317 311 298 300 294 306 303 304 293 294 302 295 291 290 288 283 274 271 270 266 259 250 247 243 245 246 244 241 239 244 251 267 288 305 315 320
324 324 319 317 314 313 317 315 316 307 302 305 302 301 303 296 298 297 298 298 292 291 290 286 274 271 267 259 251 248 243 241 245 243 240 236 237 244 255 278 298 307 315 323
320 321 319 320 318 316 330 307 303 304 302 297 301 301 303 297 288 294 296 299 298 292 294 292 278 270 261 254 247 244 236 241 240 235 231 232 237 255 270 284 299 311 319 323
319 324 320 318 314 316 277 301 297 304 301 298 297 295 299 298 295 294 292 295 300 301 300 303 285 263 257 250 240 232 235 231 230 225 226 230 244 264 278 289 302 312 318 324
329 327 322 323 291 318 310 299 303 311 308 304 307 296 295 292 295 287 294 290 301 305 296 301 289 263 251 244 238 230 222 218 214 218 224 239 256 274 288 301 308 313 319 325
298 324 322 308 310 287 277 324 320 309 315 310 311 306 299 292 291 291 299 283 296 306 286 295 282 263 250 242 231 220 205 198 208 218 237 256 270 281 296 304 307 314 323 327
322 319 325 306 313 313 278 299 315 313 311 309 305 301 300 299 289 291 293 282 283 295 282 281 268 257 249 241 228 205 196 192 208 238 260 273 284 297 302 305 310 319 326 329